Home > Weather > Fresno > Past weeks

Flag for U.S.A. Weather for the Past 2 Weeks in Fresno, California, U.S.A.

Now
61 °F

Clear.


Feels Like: 61 °F
Forecast: 42 / 68 °F
Wind: No wind

Location: Fresno Air Terminal

Current Time: Feb 7, 2016 at 7:00:12 PM

Latest Report: Feb 7, 2016 at 5:53 PM


Visibility: 8 mi

Pressure: 30.23 "Hg

Humidity: 60%

Dew point: 47 °F

Location of FresnoLocation

Historic Weather in Fresno — Graph

°F

Fresno Temperature Yesterday

Maximum temperature yesterday: 62 °F (at 2:53 PM)
Minimum temperature yesterday: 39 °F (at 4:53 AM)
Average temperature yesterday: 50 °F

High & Low Weather Summary for the Past Weeks

 TemperatureHumidityPressure
High67 °F (Feb 7, 2:53 PM)97% (Jan 24, 6:58 AM)30.48 "Hg (Jan 24, 6:58 AM)
Low33 °F (Feb 3, 5:53 AM)42% (Feb 7, 2:53 PM)29.68 "Hg (Jan 31, 1:53 PM)
Average48 °F77%30.24 "Hg
* Reported Jan 23 4:53 PM — Feb 7 4:53 PM, Fresno, Weather by CustomWeather, © 2016

Note: Actual official high and low records may vary slightly from our data, if they occured in-between our weather recording intervals... More about our weather records

Advertising

Fresno Weather History for the Previous 24 Hours

 ConditionsComfort  
Time TempWeatherWind HumidityBarometerVisibility
4:53 PM
Sun, Feb 7
67 °FSunny.No wind47%30.21 "Hg10 mi
3:53 PM67 °FSunny.No wind47%30.22 "Hg10 mi
2:53 PM67 °FSunny.5 mph42%30.21 "Hg9 mi
1:53 PM65 °FPassing clouds.5 mph49%30.22 "Hg9 mi
12:53 PM63 °FHaze.No wind54%30.24 "Hg6 mi
11:53 AM60 °FSunny.3 mph62%30.27 "Hg6 mi
10:53 AM56 °FSunny.No wind72%30.30 "Hg5 mi
9:53 AM53 °FSunny.No wind77%30.32 "Hg4 mi
8:53 AM47 °FFog.3 mph90%30.32 "Hg4 mi
7:53 AM44 °FFog.No wind93%30.31 "Hg6 mi
6:53 AM42 °FFog.3 mph89%30.30 "Hg4 mi
5:53 AM42 °FFog.6 mph89%30.30 "Hg6 mi
4:53 AM43 °FPassing clouds.No wind89%30.31 "Hg8 mi
3:53 AM44 °FClear.No wind85%30.31 "Hg7 mi
2:53 AM43 °FFog.3 mph89%30.32 "Hg6 mi
1:53 AM45 °FClear.No wind86%30.33 "Hg7 mi
12:53 AM46 °FClear.No wind86%30.33 "Hg7 mi
11:53 PM
Sat, Feb 6
47 °FClear.5 mph86%30.34 "Hg7 mi
10:53 PM48 °FFog.3 mph86%30.35 "Hg6 mi
9:53 PM49 °FClear.No wind84%30.34 "Hg7 mi
8:53 PM50 °FClear.3 mph80%30.34 "Hg8 mi
7:53 PM55 °FClear.No wind67%30.32 "Hg9 mi
Weather by CustomWeather, © 2016

See weather overviewHow to use our weather pages